| time (UTC) | temp F | wind direction | speed MPH | gust MPH | rain 1hr in | rain 24hr in | rain mn in | humidity % | barometer mb |
| 20260901213053 | 67 | 261 | 0.0 | 1.0 | 0.00 | 0.18 | 0.18 | 73 | 1018.9 |
| 20260901211553 | 67 | 261 | 0.0 | 0.0 | 0.00 | 0.18 | 0.18 | 73 | 1018.6 |
| 20260901210052 | 67 | 261 | 0.0 | 0.0 | 0.00 | 0.18 | 0.18 | 72 | 1018.7 |
| 20260901204551 | 68 | 261 | 0.0 | 4.0 | 0.00 | 0.18 | 0.18 | 71 | 1018.5 |
| 20260901203051 | 68 | 304 | 0.0 | 2.0 | 0.00 | 0.18 | 0.18 | 69 | 1018.3 |
| 20260901201551 | 69 | 281 | 1.0 | 4.0 | 0.00 | 0.18 | 0.18 | 67 | 1018.5 |
| 20260901200105 | 69 | 69 | 1.0 | 3.0 | 0.00 | 0.18 | 0.18 | 64 | 1018.3 |
| 20260901194558 | 70 | 272 | 2.0 | 5.0 | 0.00 | 0.18 | 0.18 | 67 | 1018.3 |
| 20260901193053 | 69 | 286 | 0.0 | 3.0 | 0.00 | 0.18 | 0.18 | 68 | 1018.4 |
| 20260901191545 | 69 | 280 | 1.0 | 4.0 | 0.00 | 0.18 | 0.18 | 69 | 1018.5 |
| 20260901190052 | 68 | 280 | 0.0 | 0.0 | 0.00 | 0.18 | 0.18 | 71 | 1018.6 |
| 20260901184548 | 68 | 280 | 0.0 | 3.0 | 0.00 | 0.18 | 0.18 | 67 | 1018.6 |
| 20260901183042 | 68 | 279 | 0.0 | 1.0 | 0.00 | 0.18 | 0.18 | 71 | 1018.8 |
| 20260901181544 | 68 | 279 | 0.0 | 1.0 | 0.00 | 0.18 | 0.18 | 70 | 1018.8 |
| 20260901180041 | 69 | 23 | 0.0 | 1.0 | 0.00 | 0.18 | 0.18 | 67 | 1018.6 |
| 20260901174542 | 68 | 22 | 0.0 | 2.0 | 0.00 | 0.18 | 0.18 | 68 | 1018.7 |
| 20260901173039 | 68 | 260 | 0.0 | 4.0 | 0.00 | 0.18 | 0.18 | 65 | 1018.5 |
| 20260901171550 | 68 | 14 | 0.0 | 2.0 | 0.00 | 0.18 | 0.18 | 66 | 1018.6 |
| 20260901170037 | 68 | 342 | 0.0 | 3.0 | 0.00 | 0.18 | 0.18 | 65 | 1018.4 |
| 20260901164534 | 67 | 138 | 1.0 | 5.0 | 0.00 | 0.18 | 0.18 | 68 | 1018.6 |
| 20260901163034 | 66 | 88 | 0.0 | 2.0 | 0.00 | 0.18 | 0.18 | 71 | 1018.5 |
| 20260901161526 | 65 | 72 | 0.0 | 4.0 | 0.00 | 0.18 | 0.18 | 75 | 1018.7 |
| 20260901160023 | 63 | 194 | 0.0 | 2.0 | 0.00 | 0.18 | 0.18 | 79 | 1018.8 |
| 20260901154518 | 62 | 194 | 0.0 | 2.0 | 0.00 | 0.18 | 0.18 | 80 | 1019.0 |
| 20260901153017 | 62 | 194 | 0.0 | 3.0 | 0.00 | 0.18 | 0.18 | 81 | 1019.2 |
| 20260901151521 | 61 | 182 | 0.0 | 1.0 | 0.00 | 0.18 | 0.18 | 81 | 1019.2 |
| 20260901150019 | 61 | 182 | 0.0 | 2.0 | 0.00 | 0.18 | 0.18 | 82 | 1019.2 |
| 20260901144516 | 60 | 182 | 0.0 | 0.0 | 0.01 | 0.18 | 0.18 | 82 | 1019.3 |
| 20260901143009 | 60 | 182 | 0.0 | 3.0 | 0.01 | 0.18 | 0.18 | 82 | 1019.3 |
| 20260901141506 | 59 | 182 | 0.0 | 2.0 | 0.01 | 0.18 | 0.18 | 82 | 1019.0 |
| 20260901140005 | 58 | 182 | 0.0 | 1.0 | 0.01 | 0.18 | 0.18 | 82 | 1018.9 |
| 20260901134500 | 58 | 182 | 0.0 | 2.0 | 0.00 | 0.17 | 0.17 | 82 | 1018.9 |
| 20260901133100 | 58 | 182 | 0.0 | 1.0 | 0.00 | 0.17 | 0.17 | 82 | 1019.1 |
| 20260901131557 | 58 | 182 | 0.0 | 1.0 | 0.01 | 0.17 | 0.17 | 82 | 1019.4 |
| 20260901130053 | 57 | 182 | 0.0 | 0.0 | 0.03 | 0.17 | 0.17 | 82 | 1019.2 |
| 20260901124553 | 57 | 182 | 0.0 | 0.0 | 0.05 | 0.17 | 0.17 | 82 | 1019.5 |
| 20260901123103 | 57 | 182 | 0.0 | 0.0 | 0.07 | 0.17 | 0.17 | 82 | 1019.6 |
| 20260901121602 | 57 | 182 | 0.0 | 0.0 | 0.08 | 0.16 | 0.16 | 82 | 1019.6 |
| 20260901120044 | 57 | 182 | 0.0 | 0.0 | 0.08 | 0.14 | 0.14 | 82 | 1019.4 |
| 20260901114545 | 57 | 182 | 0.0 | 0.0 | 0.08 | 0.12 | 0.12 | 82 | 1019.5 |
| 20260901113044 | 57 | 182 | 0.0 | 0.0 | 0.09 | 0.10 | 0.10 | 82 | 1019.6 |
| 20260901111542 | 57 | 182 | 0.0 | 0.0 | 0.08 | 0.08 | 0.08 | 81 | 1019.6 |
| 20260901110041 | 57 | 183 | 0.0 | 0.0 | 0.06 | 0.06 | 0.06 | 81 | 1019.4 |
| 20260901104553 | 57 | 182 | 0.0 | 0.0 | 0.03 | 0.03 | 0.03 | 81 | 1019.2 |
| 20260901103040 | 57 | 182 | 0.0 | 0.0 | 0.01 | 0.01 | 0.01 | 81 | 1019.0 |
| 20260901101538 | 57 | 182 | 0.0 | 2.0 | 0.00 | 0.00 | 0.00 | 81 | 1018.7 |
| 20260901100052 | 57 | 183 | 0.0 | 4.0 | 0.00 | 0.00 | 0.00 | 81 | 1018.6 |
| 20260901094537 | 57 | 182 | 0.0 | 1.0 | 0.00 | 0.00 | 0.00 | 81 | 1018.5 |
| 20260901093036 | 57 | 182 | 0.0 | 4.0 | 0.00 | 0.00 | 0.00 | 81 | 1018.9 |
| 20260901091536 | 57 | 186 | 0.0 | 2.0 | 0.00 | 0.00 | 0.00 | 82 | 1018.8 |
| 20260901090039 | 57 | 186 | 0.0 | 0.0 | 0.00 | 0.00 | 0.00 | 82 | 1018.8 |
| 20260901084533 | 56 | 186 | 0.0 | 0.0 | 0.00 | 0.00 | 0.00 | 82 | 1018.7 |
| 20260901083032 | 56 | 186 | 0.0 | 0.0 | 0.00 | 0.00 | 0.00 | 82 | 1018.9 |
| 20260901081530 | 56 | 186 | 0.0 | 0.0 | 0.00 | 0.00 | 0.00 | 82 | 1018.9 |
| 20260901080029 | 56 | 186 | 0.0 | 0.0 | 0.00 | 0.00 | 0.00 | 82 | 1018.9 |
| 20260901074527 | 56 | 186 | 0.0 | 0.0 | 0.00 | 0.00 | 0.00 | 82 | 1019.0 |
| 20260901073027 | 56 | 186 | 0.0 | 0.0 | 0.00 | 0.00 | 0.00 | 82 | 1018.8 |
| 20260901071528 | 56 | 186 | 0.0 | 0.0 | 0.00 | 0.00 | 0.00 | 82 | 1018.8 |
| 20260901070023 | 55 | 186 | 0.0 | 0.0 | 0.00 | 0.00 | 0.00 | 82 | 1019.1 |
| 20260901064529 | 55 | 186 | 0.0 | 0.0 | 0.00 | 0.00 | 0.00 | 82 | 1019.1 |
| 20260901063027 | 55 | 186 | 0.0 | 1.0 | 0.00 | 0.00 | 0.00 | 82 | 1019.1 |
| 20260901061519 | 55 | 186 | 0.0 | 0.0 | 0.00 | 0.00 | 0.00 | 82 | 1019.4 |
| 20260901060018 | 54 | 186 | 0.0 | 0.0 | 0.00 | 0.00 | 0.00 | 82 | 1019.5 |
| 20260901054518 | 54 | 186 | 0.0 | 0.0 | 0.00 | 0.00 | 0.00 | 82 | 1019.7 |
| 20260901053017 | 54 | 186 | 0.0 | 0.0 | 0.00 | 0.00 | 0.00 | 81 | 1019.5 |
| 20260901051515 | 54 | 186 | 0.0 | 0.0 | 0.00 | 0.00 | 0.00 | 81 | 1019.4 |
| 20260901050017 | 54 | 186 | 0.0 | 0.0 | 0.00 | 0.00 | 0.00 | 81 | 1019.8 |
| 20260901044513 | 54 | 186 | 0.0 | 0.0 | 0.00 | 0.00 | 0.00 | 81 | 1019.7 |
| 20260901043011 | 55 | 186 | 0.0 | 0.0 | 0.00 | 0.00 | 0.00 | 81 | 1019.6 |
| 20260901041511 | 55 | 186 | 0.0 | 0.0 | 0.00 | 0.00 | 0.00 | 81 | 1019.5 |
| 20260901040015 | 55 | 186 | 0.0 | 0.0 | 0.00 | 0.00 | 0.00 | 81 | 1019.3 |
| 20260901034507 | 55 | 186 | 0.0 | 0.0 | 0.00 | 0.00 | 0.00 | 80 | 1019.4 |
| 20260901033007 | 55 | 186 | 0.0 | 0.0 | 0.00 | 0.00 | 0.00 | 80 | 1019.3 |
| 20260901031507 | 55 | 186 | 0.0 | 0.0 | 0.00 | 0.00 | 0.00 | 79 | 1019.4 |
| 20260901030005 | 56 | 186 | 0.0 | 0.0 | 0.00 | 0.00 | 0.00 | 78 | 1019.1 |
| 20260901024510 | 56 | 186 | 0.0 | 0.0 | 0.00 | 0.00 | 0.00 | 77 | 1019.1 |
| 20260901023005 | 56 | 186 | 0.0 | 0.0 | 0.00 | 0.00 | 0.00 | 76 | 1019.2 |
| 20260901021504 | 57 | 186 | 0.0 | 1.0 | 0.00 | 0.00 | 0.00 | 75 | 1019.1 |
| 20260901020004 | 57 | 186 | 0.0 | 0.0 | 0.00 | 0.00 | 0.00 | 70 | 1019.2 |
| 20260901014503 | 58 | 186 | 0.0 | 0.0 | 0.00 | 0.00 | 0.00 | 68 | 1019.0 |
| 20260901013003 | 58 | 186 | 0.0 | 0.0 | 0.00 | 0.00 | 0.00 | 69 | 1019.0 |
| 20260901011501 | 59 | 186 | 0.0 | 0.0 | 0.00 | 0.00 | 0.00 | 68 | 1018.9 |
| 20260901010001 | 60 | 186 | 0.0 | 0.0 | 0.00 | 0.01 | 0.00 | 68 | 1018.9 |
| 20260901004503 | 60 | 186 | 0.0 | 0.0 | 0.00 | 0.01 | 0.00 | 68 | 1018.9 |
| 20260901003003 | 60 | 186 | 0.0 | 0.0 | 0.00 | 0.01 | 0.00 | 67 | 1019.0 |
| 20260901001600 | 60 | 186 | 0.0 | 0.0 | 0.00 | 0.01 | 0.00 | 67 | 1018.7 |
| 20260901000059 | 61 | 186 | 0.0 | 0.0 | 0.00 | 0.01 | 0.00 | 67 | 1018.7 |
| 20260901000002 | 61 | 186 | 0.0 | 0.0 | 0.00 | 0.03 | 0.00 | 67 | 1018.6 |
| 20260831234559 | 62 | 186 | 0.0 | 0.0 | 0.00 | 0.03 | 0.00 | 67 | 1018.7 |
| 20260831233058 | 63 | 186 | 0.0 | 0.0 | 0.00 | 0.03 | 0.00 | 67 | 1018.8 |
| 20260831231600 | 64 | 186 | 0.0 | 0.0 | 0.00 | 0.03 | 0.00 | 66 | 1018.7 |
| 20260831230101 | 64 | 186 | 0.0 | 0.0 | 0.00 | 0.03 | 0.00 | 65 | 1018.7 |
| 20260831224559 | 65 | 186 | 0.0 | 0.0 | 0.00 | 0.03 | 0.00 | 64 | 1018.9 |
| 20260831223056 | 66 | 186 | 0.0 | 0.0 | 0.00 | 0.03 | 0.00 | 60 | 1018.9 |
| 20260831221555 | 68 | 186 | 0.0 | 0.0 | 0.00 | 0.03 | 0.00 | 60 | 1018.8 |
| 20260831220055 | 69 | 186 | 0.0 | 2.0 | 0.00 | 0.03 | 0.00 | 56 | 1018.7 |
| 20260831214622 | 71 | 186 | 0.0 | 2.0 | 0.00 | 0.03 | 0.00 | 54 | 1018.8 |